File timestamp: Fri Sep  2 00:00:00 2016, Internal temp: 18.61572265625
1472774401, -0.00107398792169988, -0.0895811691880226, 0.122709780931473, 32606, 31826, 23307, -172.311248779297
1472774402, -0.00136096717324108, -0.0895148515701294, 0.123010188341141, 32621, 31821, 23312, NaN
1472774403, -0.00253186235204339, -0.0896406397223473, 0.123653270304203, 32608, 31817, 23305, NaN
1472774404, -0.00447308411821723, -0.0901804193854332, 0.12335266917944, 32617, 31825, 23315, NaN
1472774405, -0.00555783323943615, -0.0899816006422043, 0.123159572482109, 32614, 31828, 23302, NaN
1472774406, -0.00645969156175852, -0.0896355807781219, 0.123082883656025, 32604, 31820, 23321, NaN
1472774407.01, -0.00712482491508126, -0.0891877263784409, 0.122513949871063, 32603, 31827, 23307, NaN
1472774408.01, -0.00704503385350108, -0.0893397554755211, 0.123121939599514, 32599, 31816, 23306, NaN
1472774409.01, -0.00703737838193774, -0.0901227965950966, 0.123249813914299, 32602, 31830, 23301, NaN
1472774410.01, -0.00770037202164531, -0.0907105207443237, 0.122725553810596, 32598, 31826, 23321, NaN
1472774410.01, -0.00870793219655752, -0.0904712527990341, 0.123131461441517, 32604, 31827, 23306, NaN
1472774411.018, -0.00882054585963488, -0.0910850986838341, 0.123842909932137, 32613, 31824, 23305, NaN
1472774412.018, -0.00864461995661259, -0.0912667065858841, 0.123303674161434, 32616, 31826, 23308, NaN
1472774413.018, -0.0074159330688417, -0.0900458991527557, 0.12313199788332, 32615, 31818, 23314, NaN
1472774414.018, -0.00635319435968995, -0.0889188051223755, 0.122332580387592, 32616, 31830, 23298, NaN
1472774414.018, -0.0047332919202745, -0.0896957591176033, 0.122910775244236, 32618, 31824, 23308, NaN
1472774415.024, -0.00258764950558543, -0.0899045467376709, 0.122675746679306, 32604, 31823, 23313, NaN
1472774416.024, -8.73466415214352e-05, -0.0896994397044182, 0.123086869716644, 32604, 31832, 23306, NaN
1472774417.024, 0.00128995312843472, -0.0897100195288658, 0.122856169939041, 32619, 31830, 23305, NaN
1472774418.024, 0.00169216468930244, -0.0900993198156357, 0.123406872153282, 32609, 31820, 23310, NaN
1472774418.024, 0.00234978785738349, -0.090339258313179, 0.122519560158253, 32591, 31817, 23312, NaN
1472774419.028, 0.00329391355626285, -0.0909772142767906, 0.12319852411747, 32606, 31814, 23313, NaN
1472774420.028, 0.00285760406404734, -0.0910894349217415, 0.123669534921646, 32615, 31816, 23299, NaN
1472774421.028, 0.00229045748710632, -0.0916500985622406, 0.12409446388483, 32603, 31828, 23295, NaN
1472774422.028, 0.0021407837048173, -0.0915723070502281, 0.124758116900921, 32602, 31822, 23322, NaN
1472774422.028, 0.0026456662453711, -0.0924124047160149, 0.124594837427139, 32603, 31830, 23309, NaN
1472774423.03, 0.00276226573623717, -0.0921749472618103, 0.125435143709183, 32611, 31818, 23314, NaN
1472774424.03, 0.00181439006701112, -0.0926340967416763, 0.125843077898026, 32595, 31827, 23315, NaN
1472774425.03, 6.67330605210736e-05, -0.0926564186811447, 0.126802802085876, 32611, 31815, 23315, NaN
1472774426.03, -0.00180976197589189, -0.0932525843381882, 0.126476615667343, 32601, 31825, 23315, NaN
1472774427.03, -0.00294848205521703, -0.0932040810585022, 0.125716671347618, 32607, 31818, 23302, NaN
1472774428.03, -0.00239140982739627, -0.0932629108428955, 0.1259925365448, 32612, 31825, 23313, NaN
1472774429.03, -0.00144535442814231, -0.0924573615193367, 0.126308798789978, 32599, 31827, 23318, NaN
1472774430.03, 0.000575684127397835, -0.0923742651939392, 0.126714780926704, 32608, 31827, 23308, NaN
1472774431.03, 0.00245661940425634, -0.0923967808485031, 0.126925572752953, 32597, 31820, 23312, NaN
1472774432.03, 0.00437968410551548, -0.0914717838168144, 0.127070218324661, 32617, 31828, 23306, NaN
1472774433.04, 0.00487448228523135, -0.0909964293241501, 0.126853778958321, 32600, 31813, 23313, NaN
1472774434.04, 0.00495547009631991, -0.0916802510619164, 0.127539038658142, 32615, 31815, 23306, NaN
1472774435.04, 0.00554756913334131, -0.0916023105382919, 0.12739098072052, 32614, 31808, 23304, NaN
1472774436.04, 0.00668932357802987, -0.0923960506916046, 0.127008721232414, 32596, 31823, 23311, NaN
1472774437.04, 0.00723450817167759, -0.0927740335464478, 0.126543998718262, 32601, 31813, 23308, NaN
1472774438.04, 0.00803582184016705, -0.0932218655943871, 0.126904964447021, 32610, 31817, 23316, NaN
1472774439.04, 0.00800238270312548, -0.0928388386964798, 0.12717792391777, 32608, 31814, 23303, NaN
1472774440.04, 0.00859932880848646, -0.092820830643177, 0.127805173397064, 32618, 31815, 23306, NaN
1472774441.04, 0.00920796766877174, -0.0922703817486763, 0.127961575984955, 32617, 31817, 23303, NaN
1472774442.04, 0.00858944468200207, -0.0925216600298882, 0.128149420022964, 32619, 31825, 23313, NaN
1472774443.04, 0.00749706476926804, -0.0931111127138138, 0.128070563077927, 32603, 31822, 23306, NaN
1472774444.04, 0.00603108061477542, -0.0939815193414688, 0.129089012742043, 32601, 31829, 23310, NaN
1472774445.04, 0.0041005490347743, -0.0942418128252029, 0.129040464758873, 32601, 31823, 23320, NaN
1472774446.04, 0.00358297070488334, -0.0937140956521034, 0.12911120057106, 32617, 31823, 23301, NaN
1472774447.04, 0.00350402621552348, -0.0934560522437096, 0.129557326436043, 32618, 31824, 23296, NaN
1472774448.04, 0.00337528949603438, -0.093105286359787, 0.12867659330368, 32611, 31822, 23305, NaN
1472774449.04, 0.00367050524801016, -0.0929660126566887, 0.128807529807091, 32621, 31815, 23305, NaN
1472774450.04, 0.00405651004984975, -0.0930539593100548, 0.128886163234711, 32603, 31822, 23321, NaN
1472774451.04, 0.00413561100140214, -0.0930187180638313, 0.129288285970688, 32610, 31815, 23304, NaN
1472774452.04, 0.00433439156040549, -0.0930909663438797, 0.129105761647224, 32605, 31816, 23311, NaN
1472774453.04, 0.00437958957627416, -0.0936123356223106, 0.128065079450607, 32597, 31823, 23314, NaN
1472774454.04, 0.00393869914114475, -0.093570850789547, 0.127268955111504, 32602, 31824, 23308, NaN
1472774455.04, 0.00411083875223994, -0.0931060314178467, 0.127532422542572, 32605, 31822, 23313, NaN
1472774456.04, 0.0040680393576622, -0.0935710743069649, 0.126949310302734, 32609, 31820, 23317, NaN
1472774457.04, 0.00267657195217907, -0.0946287214756012, 0.126454159617424, 32602, 31830, 23303, -171.262847900391
1472774458.04, 0.00147407373879105, -0.0944031551480293, 0.126538380980492, 32604, 31819, 23318, NaN
1472774459.04, 0.00137836555950344, -0.0939425900578499, 0.12679597735405, 32607, 31815, 23312, NaN
1472774460.04, 0.000244508555624634, -0.0930095240473747, 0.125986397266388, 32603, 31821, 23317, NaN
1472774461.04, -0.00141039944719523, -0.092448428273201, 0.124932266771793, 32602, 31840, 23318, NaN
1472774462.048, -0.00189929129555821, -0.0924663841724396, 0.124659784138203, 32616, 31820, 23310, NaN
1472774463.048, -0.00208300980739295, -0.0925744697451591, 0.123765408992767, 32623, 31825, 23304, NaN
1472774464.048, -0.00333844381384552, -0.0923108384013176, 0.123860962688923, 32608, 31833, 23309, NaN
1472774465.048, -0.00600253790616989, -0.0919304639101028, 0.12316257506609, 32614, 31824, 23299, NaN
1472774465.048, -0.00857590977102518, -0.0917427912354469, 0.122982539236546, 32601, 31814, 23301, NaN
1472774466.056, -0.01073875464499, -0.0916267931461334, 0.122183129191399, 32616, 31826, 23319, NaN
1472774467.056, -0.0116664636880159, -0.0921711102128029, 0.121669985353947, 32613, 31830, 23304, NaN
1472774468.056, -0.011317097581923, -0.0916901007294655, 0.121020101010799, 32608, 31833, 23318, NaN
1472774469.056, -0.011167524382472, -0.092073492705822, 0.121575221419334, 32595, 31824, 23322, NaN
1472774469.056, -0.0107200564816594, -0.0909957885742188, 0.121309153735638, 32609, 31825, 23314, NaN
1472774470.062, -0.0103166019544005, -0.0910207033157349, 0.120723508298397, 32607, 31823, 23304, NaN
1472774471.062, -0.0101969232782722, -0.0911330729722977, 0.120714612305164, 32612, 31813, 23315, NaN
1472774472.062, -0.0106330886483192, -0.0905188843607903, 0.121201038360596, 32591, 31821, 23313, NaN
1472774473.062, -0.0103262728080153, -0.0905029103159904, 0.120535969734192, 32605, 31821, 23321, NaN
1472774473.062, -0.0107119716703892, -0.0917161181569099, 0.121274821460247, 32603, 31828, 23313, NaN
1472774474.066, -0.0107654919847846, -0.0925057306885719, 0.121221244335175, 32600, 31815, 23308, NaN
1472774475.066, -0.0100935455411673, -0.0930015966296196, 0.121486388146877, 32598, 31819, 23315, NaN
1472774476.066, -0.00866481382399797, -0.0927287638187408, 0.121771901845932, 32624, 31822, 23302, NaN
1472774477.066, -0.00718102790415287, -0.0923283398151398, 0.122470088303089, 32597, 31819, 23313, NaN
1472774478.066, -0.00579458056017756, -0.0916201770305634, 0.12242766469717, 32611, 31809, 23307, NaN
1472774479.066, -0.00300749088637531, -0.0906355977058411, 0.122575670480728, 32598, 31812, 23317, NaN
1472774480.066, 0.000277410290436819, -0.0908618792891502, 0.122709862887859, 32603, 31807, 23316, NaN
1472774481.066, 0.00267432001419365, -0.0902739092707634, 0.121793158352375, 32612, 31815, 23310, NaN
1472774482.066, 0.00464237201958895, -0.0904868766665459, 0.121055476367474, 32601, 31822, 23303, NaN
1472774483.066, 0.00710549345239997, -0.0904049277305603, 0.120937690138817, 32595, 31823, 23309, NaN
1472774484.066, 0.00865721423178911, -0.0902861058712006, 0.120799899101257, 32603, 31827, 23316, NaN
1472774485.066, 0.00785409472882748, -0.0894602984189987, 0.120768740773201, 32609, 31824, 23301, NaN
1472774486.066, 0.00668797874823213, -0.0902433097362518, 0.121333353221416, 32613, 31820, 23300, NaN
1472774487.066, 0.00603244220837951, -0.0903550088405609, 0.120684906840324, 32611, 31826, 23307, NaN
1472774488.066, 0.00667621707543731, -0.090795487165451, 0.120517998933792, 32604, 31828, 23308, NaN
1472774489.074, 0.00727968197315931, -0.0909198224544525, 0.120924234390259, 32606, 31816, 23323, NaN
1472774490.074, 0.00682678632438183, -0.0915366113185883, 0.120877824723721, 32600, 31835, 23334, NaN
1472774491.074, 0.00573599198833108, -0.0918943956494331, 0.120829291641712, 32605, 31818, 23307, NaN
1472774492.074, 0.00467328354716301, -0.092216469347477, 0.120069734752178, 32607, 31807, 23302, NaN
1472774492.074, 0.00391002325341105, -0.0927889421582222, 0.119912371039391, 32607, 31817, 23313, NaN
1472774493.082, 0.00313547975383699, -0.0922806710004807, 0.120615504682064, 32608, 31821, 23300, NaN
1472774494.082, 0.0025941536296159, -0.0923214182257652, 0.120472528040409, 32593, 31821, 23326, NaN
1472774495.082, 0.00248989230021834, -0.0921543315052986, 0.120401732623577, 32603, 31828, 23322, NaN
1472774496.082, 0.00278271082788706, -0.0926225632429123, 0.12007125467062, 32603, 31824, 23308, NaN
1472774497.082, 0.00307511049322784, -0.0920342057943344, 0.119781874120235, 32597, 31826, 23306, NaN
1472774498.082, 0.00349975726567209, -0.0915087163448334, 0.119259513914585, 32617, 31816, 23298, NaN
1472774499.082, 0.00432231789454818, -0.0916686430573463, 0.119025371968746, 32609, 31824, 23302, NaN
1472774500.082, 0.00420971447601914, -0.0908272415399551, 0.119282573461533, 32605, 31826, 23316, NaN
1472774501.082, 0.00408002408221364, -0.0901381447911263, 0.118907324969769, 32608, 31806, 23308, NaN
1472774502.082, 0.00350171281024814, -0.0904828310012817, 0.119139820337296, 32617, 31819, 23308, NaN
1472774503.082, 0.00297125405631959, -0.0895391255617142, 0.119080491364002, 32619, 31831, 23298, NaN
1472774504.082, 0.00243831682018936, -0.0891857519745827, 0.119490869343281, 32605, 31829, 23314, NaN
1472774505.082, 0.00164113729260862, -0.0894739851355553, 0.119778044521809, 32603, 31812, 23322, NaN
1472774506.082, -0.000334720010869205, -0.0893009305000305, 0.119772933423519, 32602, 31824, 23323, NaN
1472774507.082, -0.00268075498752296, -0.0889438092708588, 0.119330875575542, 32599, 31815, 23316, NaN
1472774508.082, -0.00440449034795165, -0.0888357907533646, 0.119004495441914, 32605, 31809, 23319, NaN
1472774509.082, -0.00481661688536406, -0.0879664123058319, 0.119556471705437, 32605, 31815, 23308, NaN
1472774510.082, -0.00410415744408965, -0.0884235948324203, 0.11989288777113, 32625, 31808, 23309, NaN
1472774511.082, -0.00311250961385667, -0.0883703753352165, 0.121128439903259, 32604, 31822, 23321, NaN
1472774512.082, -0.00151333736721426, -0.0881890058517456, 0.121726326644421, 32604, 31815, 23305, NaN
1472774513.082, -0.00026299073942937, -0.0882875099778175, 0.121253073215485, 32615, 31826, 23312, -173.012268066406
1472774514.082, 0.000974139489699155, -0.0882332548499107, 0.121407255530357, 32610, 31814, 23314, NaN
1472774515.082, 0.00223875208757818, -0.0887884199619293, 0.122761458158493, 32613, 31812, 23310, NaN
1472774516.082, 0.00362487998791039, -0.0888206213712692, 0.122965291142464, 32605, 31823, 23312, NaN
1472774517.092, 0.00418090634047985, -0.0878939479589462, 0.122847735881805, 32611, 31824, 23305, NaN
1472774518.092, 0.00443390384316444, -0.0887298956513405, 0.123322993516922, 32606, 31815, 23318, NaN
1472774519.092, 0.00464724563062191, -0.0891407355666161, 0.123089097440243, 32612, 31825, 23312, NaN
1472774520.092, 0.00513899326324463, -0.0894657000899315, 0.123650811612606, 32607, 31813, 23318, NaN
1472774520.092, 0.0044894153252244, -0.0896399095654488, 0.123720452189445, 32600, 31830, 23319, NaN
1472774521.1, 0.00269865756854415, -0.0893684700131416, 0.123585477471352, 32612, 31809, 23302, NaN
1472774522.1, 0.00152503105346113, -0.0894752070307732, 0.123347587883472, 32611, 31821, 23314, NaN
1472774523.1, 1.97285789909074e-05, -0.0898451432585716, 0.123143829405308, 32617, 31818, 23313, NaN
1472774524.1, -0.000924938765820116, -0.0906714349985123, 0.123148359358311, 32596, 31811, 23319, NaN
1472774524.1, -0.00154072395525873, -0.090427078306675, 0.123348787426949, 32606, 31826, 23312, NaN
1472774525.106, -0.00134916696697474, -0.0891776233911514, 0.123469233512878, 32605, 31818, 23315, NaN
1472774526.106, 4.10571046813857e-05, -0.0890899077057838, 0.123578146100044, 32595, 31820, 23316, NaN
1472774527.106, 0.00130480551160872, -0.0898780673742294, 0.123881883919239, 32609, 31815, 23306, NaN
1472774528.106, 0.00165039650164545, -0.0894934460520744, 0.124808080494404, 32606, 31807, 23306, NaN
1472774528.106, 0.00136110745370388, -0.0892748534679413, 0.124851211905479, 32591, 31822, 23321, NaN
1472774529.11, -0.000808241369668394, -0.0901842191815376, 0.124520666897297, 32607, 31817, 23319, NaN
1472774530.11, -0.00467564957216382, -0.0904916673898697, 0.124795384705067, 32603, 31820, 23318, NaN
1472774531.11, -0.00905537791550159, -0.0900708809494972, 0.12559774518013, 32608, 31831, 23298, NaN
1472774532.11, -0.0123267844319344, -0.0903753340244293, 0.124483086168766, 32608, 31826, 23315, NaN
1472774533.11, -0.0156716257333755, -0.0908138528466225, 0.124328374862671, 32604, 31821, 23313, NaN
1472774534.11, -0.0176868718117476, -0.0899259522557259, 0.124627284705639, 32618, 31824, 23303, NaN
1472774535.11, -0.018521822988987, -0.089044027030468, 0.124074056744576, 32604, 31807, 23313, NaN
1472774536.11, -0.0183479767292738, -0.0900153070688248, 0.124847754836082, 32608, 31820, 23309, NaN
1472774537.11, -0.0167805589735508, -0.0906874984502792, 0.125755950808525, 32613, 31829, 23319, NaN
1472774538.11, -0.0139584448188543, -0.0904731005430222, 0.12539778649807, 32603, 31826, 23306, NaN
1472774539.11, -0.0102528026327491, -0.0907101035118103, 0.126086160540581, 32596, 31818, 23321, NaN
1472774540.08, -0.0060148355551064, -0.0911741480231285, 0.125389382243156, 32603, 31828, 23303, NaN
1472774541.08, 0.000500997586641461, -0.0909352600574493, 0.125375524163246, 32612, 31806, 23298, NaN
1472774542.08, 0.0131203727796674, -0.0908913314342499, 0.125721499323845, 32612, 31830, 23307, NaN
1472774542.08, 0.0328343398869038, -0.0912875235080719, 0.12584188580513, 32608, 31812, 23311, NaN
1472774543.088, 0.0607471093535423, -0.0912391692399979, 0.125619903206825, 32606, 31811, 23310, NaN
1472774544.088, 0.0949632376432419, -0.0921396911144257, 0.125353246927261, 32599, 31819, 23310, NaN
1472774545.088, 0.134762153029442, -0.0932716131210327, 0.125714585185051, 32610, 31809, 23310, NaN
1472774546.088, 0.176329478621483, -0.0929004400968552, 0.125717163085938, 32602, 31826, 23313, NaN
1472774546.088, 0.206888660788536, -0.0926939770579338, 0.126162022352219, 32603, 31822, 23314, NaN
1472774547.096, 0.141824945807457, -0.092840850353241, 0.126678988337517, 32605, 31815, 23312, NaN
1472774548.096, 0.0860625952482224, -0.0929883494973183, 0.126114681363106, 32603, 31815, 23314, NaN
1472774549.096, 0.0388903543353081, -0.0933556780219078, 0.126592844724655, 32610, 31829, 23311, NaN
1472774550.096, -0.000394497998058796, -0.093490332365036, 0.126228719949722, 32606, 31827, 23320, NaN
1472774551.096, -0.0324828326702118, -0.0937049016356468, 0.126416712999344, 32607, 31823, 23318, NaN
1472774552.096, -0.058050237596035, -0.093351736664772, 0.126278579235077, 32596, 31823, 23316, NaN
1472774553.096, -0.0777535811066628, -0.0923264399170876, 0.125805526971817, 32593, 31823, 23325, NaN
1472774554.096, -0.0922277048230171, -0.0922584161162376, 0.125684291124344, 32612, 31815, 23300, NaN
1472774555.096, -0.102082274854183, -0.0913536995649338, 0.125456303358078, 32603, 31817, 23319, NaN
1472774556.096, -0.107899039983749, -0.0917462185025215, 0.125608593225479, 32610, 31832, 23298, NaN
1472774557.096, -0.110229358077049, -0.0916681960225105, 0.125216841697693, 32607, 31826, 23311, NaN
1472774558.096, -0.10959217697382, -0.0906317010521889, 0.124727569520473, 32615, 31826, 23308, NaN
1472774559.096, -0.106472380459309, -0.0898534059524536, 0.124856866896152, 32612, 31819, 23325, NaN
1472774560.096, -0.101319640874863, -0.0894661992788315, 0.124523103237152, 32606, 31815, 23318, NaN
1472774561.096, -0.0945476219058037, -0.0885048434138298, 0.125069335103035, 32611, 31812, 23312, NaN
1472774562.096, -0.0865336582064629, -0.0878490880131721, 0.124537020921707, 32596, 31821, 23316, NaN
1472774563.096, -0.077618807554245, -0.0883345007896423, 0.124992877244949, 32610, 31816, 23316, NaN
1472774564.096, -0.0681082755327225, -0.0882700532674789, 0.125962376594543, 32603, 31828, 23307, NaN
1472774565.096, -0.0582721717655659, -0.087842270731926, 0.125614628195763, 32615, 31824, 23312, NaN
1472774566.096, -0.0483465828001499, -0.0880414545536041, 0.125849589705467, 32601, 31818, 23316, NaN
1472774567.096, -0.0385349243879318, -0.0881613790988922, 0.125729858875275, 32607, 31816, 23305, NaN
1472774568.096, -0.0290095042437315, -0.0887953862547874, 0.125659555196762, 32607, 31837, 23307, -172.729537963867
1472774569.096, -0.0199132636189461, -0.0885904133319855, 0.126014247536659, 32611, 31825, 23319, NaN
1472774570.096, -0.0113617088645697, -0.0875748619437218, 0.126429513096809, 32599, 31812, 23321, NaN
1472774571.104, -0.00344492914155126, -0.0875841155648232, 0.126828223466873, 32605, 31820, 23303, NaN
1472774572.104, 0.00377030321396887, -0.0883949398994446, 0.126862749457359, 32611, 31814, 23312, NaN
1472774573.104, 0.0102383783087134, -0.0885034129023552, 0.127945467829704, 32605, 31812, 23316, NaN
1472774574.104, 0.0159326866269112, -0.0879558920860291, 0.127784982323647, 32608, 31833, 23309, NaN
1472774574.104, 0.0208434704691172, -0.0875319465994835, 0.128878876566887, 32603, 31821, 23318, NaN
1472774575.112, 0.0249757152050734, -0.0885375142097473, 0.128580152988434, 32609, 31828, 23308, NaN
1472774576.112, 0.0283470824360847, -0.0885546430945396, 0.128372088074684, 32600, 31822, 23323, NaN
1472774577.112, 0.0290578305721283, -0.0883828327059746, 0.127987995743752, 32599, 31828, 23317, NaN
1472774578.112, 0.0259607285261154, -0.0879574716091156, 0.12782196700573, 32607, 31817, 23307, NaN
1472774578.112, 0.0210559461265802, -0.0881034657359123, 0.128063052892685, 32607, 31824, 23308, NaN
1472774579.118, 0.0149779031053185, -0.0880784094333649, 0.127757251262665, 32607, 31825, 23308, NaN
1472774580.118, 0.00833270698785782, -0.0880245417356491, 0.127476036548615, 32616, 31824, 23310, NaN
1472774581.118, 0.00193697458598763, -0.0879010111093521, 0.126958042383194, 32601, 31832, 23320, NaN
1472774582.118, -0.00439315382391214, -0.0881912633776665, 0.126655802130699, 32606, 31825, 23304, NaN
1472774582.122, -0.00985150132328272, -0.0883198902010918, 0.126395210623741, 32612, 31824, 23304, NaN
1472774583.126, -0.0132872648537159, -0.0883711874485016, 0.126643463969231, 32610, 31829, 23320, NaN
1472774584.126, -0.015115775167942, -0.0888445153832436, 0.12754862010479, 32614, 31822, 23316, NaN
1472774585.126, -0.0158447865396738, -0.0884459316730499, 0.128024414181709, 32607, 31824, 23309, NaN
1472774586.126, -0.0149127263575792, -0.0886776074767113, 0.12788550555706, 32608, 31811, 23312, NaN
1472774587.126, -0.0123482886701822, -0.0895295217633247, 0.126560300588608, 32591, 31822, 23328, NaN
1472774588.126, -0.00842333771288395, -0.0905758962035179, 0.125740274786949, 32606, 31814, 23296, NaN
1472774589.126, -0.00218143896199763, -0.0910462737083435, 0.12559412419796, 32615, 31825, 23313, NaN
1472774590.126, 0.00506602134555578, -0.0913009718060493, 0.125022500753403, 32602, 31810, 23316, NaN
1472774591.126, 0.0126690622419119, -0.0909350141882896, 0.124518655240536, 32598, 31817, 23296, NaN
1472774592.126, 0.0202397275716066, -0.0916551798582077, 0.125507161021233, 32624, 31823, 23307, NaN
1472774593.126, 0.0267279744148254, -0.0916796699166298, 0.125625267624855, 32602, 31823, 23309, NaN
1472774594.126, 0.0321202054619789, -0.0918498113751411, 0.125072509050369, 32610, 31820, 23303, NaN
1472774595.126, 0.0371852032840252, -0.0927944630384445, 0.124929651618004, 32607, 31818, 23311, NaN
1472774596.134, 0.0423178933560848, -0.09295354783535, 0.124735713005066, 32606, 31818, 23309, NaN
1472774596.134, 0.0460296273231506, -0.0928552597761154, 0.124572291970253, 32609, 31837, 23311, NaN
1472774597.142, 0.0491672530770302, -0.092106856405735, 0.124360010027885, 32619, 31824, 23295, NaN
1472774598.142, 0.0519497096538544, -0.0922350510954857, 0.124595813453197, 32605, 31820, 23306, NaN
1472774599.142, 0.0530018620193005, -0.0918651893734932, 0.12494732439518, 32596, 31821, 23315, NaN
1472774600.142, 0.0536051839590073, -0.0917149037122726, 0.12501572072506, 32619, 31822, 23295, NaN
1472774600.142, 0.0542900711297989, -0.0924061313271523, 0.12564480304718, 32600, 31823, 23324, NaN
1472774601.15, 0.0557408928871155, -0.0926222875714302, 0.126157119870186, 32611, 31823, 23307, NaN
1472774602.15, 0.0585907362401485, -0.0937893837690353, 0.126138433814049, 32589, 31816, 23324, NaN
1472774603.15, 0.0625282824039459, -0.093433640897274, 0.126187071204185, 32615, 31812, 23304, NaN
1472774604.15, 0.0682580024003983, -0.0937365368008614, 0.126141205430031, 32595, 31821, 23324, NaN
1472774604.15, 0.0752181261777878, -0.0937776491045952, 0.126547411084175, 32607, 31823, 23316, NaN
1472774605.156, 0.0836755260825157, -0.0940296947956085, 0.127137646079063, 32628, 31819, 23303, NaN
1472774606.156, 0.0922259986400604, -0.0937652736902237, 0.127055406570435, 32607, 31811, 23307, NaN
1472774607.156, 0.0998443365097046, -0.0937277600169182, 0.126737788319588, 32600, 31814, 23324, NaN
1472774608.156, 0.107138305902481, -0.0936679765582085, 0.126593619585037, 32602, 31817, 23313, NaN
1472774609.156, 0.11111256480217, -0.0929693430662155, 0.126399487257004, 32608, 31819, 23310, NaN
1472774610.156, 0.113101094961166, -0.0930803865194321, 0.126168012619019, 32609, 31828, 23300, NaN
1472774611.156, 0.088053323328495, -0.0926503613591194, 0.126392126083374, 32615, 31832, 23316, NaN
1472774612.156, 0.0412091873586178, -0.0928829833865166, 0.1254673153162, 32610, 31824, 23308, NaN
1472774613.156, 0.00173510320018977, -0.0928355157375336, 0.126300454139709, 32620, 31820, 23307, NaN
1472774614.156, -0.0309434458613396, -0.0931325927376747, 0.125502109527588, 32610, 31822, 23314, NaN
1472774615.156, -0.0573996901512146, -0.0932183638215065, 0.125427827239037, 32611, 31813, 23311, NaN
1472774616.156, -0.0782012641429901, -0.0931686088442802, 0.124856777489185, 32608, 31832, 23311, NaN